KF6RAL-6 Weather Reports


Display with metric or nautical units.
time (UTC)temp
F
wind
direction
speed
MPH
gust
MPH
rain 1hr
in
rain 24hr
in
rain mn
in
humidity
%
barometer
mb
20170820153026 0 0 0.0 0.0 0.00 0.00 0.00 1015.6
20170820152325 0 0 0.0 0.0 0.00 0.00 0.00 1015.7
20170820151624 0 0 0.0 0.0 0.00 0.00 0.00 1015.7
20170820150923 0 0 0.0 0.0 0.00 0.00 0.00 1015.7
20170820150222 0 0 0.0 0.0 0.00 0.00 0.00 1015.6
20170820145521 0 0 0.0 0.0 0.00 0.00 0.00 1015.5
20170820144822 0 0 0.0 0.0 0.00 0.00 0.00 1015.3
20170820144119 0 0 0.0 0.0 0.00 0.00 0.00 1015.3
20170820143418 0 0 0.0 0.0 0.00 0.00 0.00 1015.2
20170820142016 0 0 0.0 1.0 0.00 0.00 0.00 1015.3
20170820141317 0 0 0.0 1.0 0.00 0.00 0.00 1015.2
20170820140614 0 0 0.0 0.0 0.00 0.00 0.00 1015.2
20170820135913 0 0 0.0 0.0 0.00 0.00 0.00 1015.2
20170820135212 0 0 0.0 0.0 0.00 0.00 0.00 1015.1
20170820134511 0 0 0.0 0.0 0.00 0.00 0.00 1015.1
20170820133810 0 0 0.0 0.0 0.00 0.00 0.00 1015.0
20170820133109 0 0 0.0 0.0 0.00 0.00 0.00 1015.0
20170820132408 0 0 0.0 0.0 0.00 0.00 0.00 1014.9
20170820131707 0 0 0.0 0.0 0.00 0.00 0.00 1014.8
20170820131006 0 0 0.0 0.0 0.00 0.00 0.00 1014.8
20170820130305 0 0 0.0 0.0 0.00 0.00 0.00 1014.7
20170820125604 0 0 0.0 0.0 0.00 0.00 0.00 1014.6
20170820124902 0 0 0.0 0.0 0.00 0.00 0.00 1014.6
20170820124202 0 0 0.0 0.0 0.00 0.00 0.00 1014.6
20170820123500 0 0 0.0 0.0 0.00 0.00 0.00 1014.4
20170820122759 0 0 0.0 0.0 0.00 0.00 0.00 1014.3
20170820122058 0 0 0.0 0.0 0.00 0.00 0.00 1014.2
20170820121357 0 0 0.0 0.0 0.00 0.00 0.00 1014.1
20170820120657 0 0 0.0 0.0 0.00 0.00 0.00 1014.0
20170820115955 0 0 0.0 0.0 0.00 0.00 0.00 1014.0
20170820115255 0 0 0.0 0.0 0.00 0.00 0.00 1014.0
20170820114553 0 0 0.0 0.0 0.00 0.00 0.00 1013.9
20170820113852 0 0 0.0 2.0 0.00 0.00 0.00 1013.9
20170820113151 0 0 0.0 5.0 0.00 0.00 0.00 1013.9
20170820112450 0 231 3.0 5.0 0.00 0.00 0.00 1013.8
20170820111749 0 0 0.0 10.0 0.00 0.00 0.00 1013.9
20170820111048 0 232 5.0 10.0 0.00 0.00 0.00 1013.8
20170820110347 0 233 6.0 10.0 0.00 0.00 0.00 1013.7
20170820104945 0 0 0.0 0.0 0.00 0.00 0.00 1013.5
20170820104244 0 0 0.0 0.0 0.00 0.00 0.00 1013.4
20170820103543 0 0 0.0 0.0 0.00 0.00 0.00 1013.4
20170820102842 0 0 0.0 0.0 0.00 0.00 0.00 1013.4
20170820102141 0 0 0.0 0.0 0.00 0.00 0.00 1013.5
20170820101440 0 0 0.0 0.0 0.00 0.00 0.00 1013.6
20170820100739 0 0 0.0 0.0 0.00 0.00 0.00 1013.6
20170820100038 0 0 0.0 0.0 0.00 0.00 0.00 1013.6
20170820095337 0 0 0.0 0.0 0.00 0.00 0.00 1013.5
20170820094636 0 0 0.0 0.0 0.00 0.00 0.00 1013.5
20170820093935 0 0 0.0 0.0 0.00 0.00 0.00 1013.5
20170820093234 0 0 0.0 0.0 0.00 0.00 0.00 1013.5
20170820092535 0 0 0.0 0.0 0.00 0.00 0.00 1013.6
20170820091832 0 0 0.0 0.0 0.00 0.00 0.00 1013.7
20170820091132 0 0 0.0 7.0 0.00 0.00 0.00 1013.6
20170820090430 0 197 1.0 6.0 0.00 0.00 0.00 1013.6
20170820085028 0 0 0.0 0.0 0.00 0.00 0.00 1013.5
20170820084328 0 0 0.0 0.0 0.00 0.00 0.00 1013.5
20170820083626 0 0 0.0 0.0 0.00 0.00 0.00 1013.4
20170820082925 0 0 0.0 0.0 0.00 0.00 0.00 1013.4
20170820082224 0 0 0.0 0.0 0.00 0.00 0.00 1013.5
20170820081523 0 0 0.0 0.0 0.00 0.00 0.00 1013.6
20170820080822 0 0 0.0 0.0 0.00 0.00 0.00 1013.6
20170820080121 0 0 0.0 0.0 0.00 0.00 0.00 1013.6
20170820075420 0 0 0.0 0.0 0.00 0.00 0.00 1013.6
20170820074719 0 0 0.0 0.0 0.00 0.00 0.00 1013.5
20170820074018 0 0 0.0 0.0 0.00 0.00 0.00 1013.6
20170820073317 0 0 0.0 0.0 0.00 0.00 0.00 1013.6
20170820072616 0 0 0.0 0.0 0.00 0.00 0.00 1013.6
20170820071215 0 0 0.0 0.0 0.00 0.00 0.00 1013.6
20170820070513 0 0 0.0 0.0 0.00 0.00 0.00 1013.6
20170820065812 0 0 0.0 0.0 0.00 0.00 0.00 1013.4
20170820065111 0 0 0.0 0.0 0.00 0.00 0.00 1013.5
20170820064410 0 0 0.0 0.0 0.00 0.00 0.00 1013.4
20170820063709 0 0 0.0 0.0 0.00 0.00 0.00 1013.3
20170820062307 0 0 0.0 0.0 0.00 0.00 0.00 1013.2
20170820061606 0 0 0.0 0.0 0.00 0.00 0.00 1013.3
20170820060905 0 0 0.0 0.0 0.00 0.00 0.00 1013.3
20170820060204 0 0 0.0 0.0 0.00 0.00 0.00 1013.2
20170820055503 0 0 0.0 0.0 0.00 0.00 0.00 1013.2
20170820054802 0 0 0.0 0.0 0.00 0.00 0.00 1013.3
20170820054101 0 0 0.0 0.0 0.00 0.00 0.00 1013.2
20170820053400 0 0 0.0 0.0 0.00 0.00 0.00 1013.3
20170820052659 0 0 0.0 0.0 0.00 0.00 0.00 1013.4
20170820051958 0 0 0.0 0.0 0.00 0.00 0.00 1013.4
20170820051257 0 0 0.0 0.0 0.00 0.00 0.00 1013.4
20170820050556 0 0 0.0 0.0 0.00 0.00 0.00 1013.4
20170820045859 0 0 0.0 0.0 0.00 0.00 0.00 1013.3
20170820045855 0 0 0.0 0.0 0.00 0.00 0.00 1013.3
20170820045154 0 0 0.0 0.0 0.00 0.00 0.00 1013.4
20170820044453 0 0 0.0 5.0 0.00 0.00 0.00 1013.3
20170820043752 0 266 3.0 10.0 0.00 0.00 0.00 1013.2
20170820043051 0 266 6.0 10.0 0.00 0.00 0.00 1013.2
20170820042350 0 238 3.0 18.0 0.00 0.00 0.00 1013.1
20170820041649 0 225 5.0 18.0 0.00 0.00 0.00 1013.1
20170820040948 0 248 8.0 10.0 0.00 0.00 0.00 1013.0
20170820040247 0 0 0.0 0.0 0.00 0.00 0.00 1012.9
20170820035546 0 0 0.0 0.0 0.00 0.00 0.00 1012.9
20170820034846 0 0 0.0 0.0 0.00 0.00 0.00 1012.9
20170820034144 0 0 0.0 0.0 0.00 0.00 0.00 1012.9
20170820033443 0 0 0.0 0.0 0.00 0.00 0.00 1012.9
20170820032742 0 0 0.0 0.0 0.00 0.00 0.00 1012.9
20170820032041 0 0 0.0 0.0 0.00 0.00 0.00 1012.8
20170820031340 0 0 0.0 0.0 0.00 0.02 0.00 1012.7
20170820030639 0 0 0.0 0.0 0.00 0.02 0.00 1012.7
20170820025938 0 0 0.0 0.0 0.00 0.02 0.00 1012.7
20170820025237 0 0 0.0 0.0 0.00 0.02 0.00 1012.5
20170820024536 0 0 0.0 0.0 0.00 0.02 0.00 1012.5
20170820023835 0 0 0.0 0.0 0.00 0.02 0.00 1012.6
20170820023134 0 0 0.0 0.0 0.00 0.02 0.00 1012.5
20170820022433 0 0 0.0 0.0 0.00 0.02 0.00 1012.5
20170820021733 0 0 0.0 0.0 0.00 0.02 0.00 1012.4
20170820021032 0 0 0.0 0.0 0.00 0.02 0.00 1012.4
20170820020330 0 0 0.0 0.0 0.00 0.02 0.00 1012.3
20170820015629 0 0 0.0 0.0 0.00 0.02 0.00 1012.4
20170820014927 0 0 0.0 0.0 0.00 0.02 0.00 1012.3
20170820014226 0 0 0.0 0.0 0.00 0.02 0.00 1012.3
20170820013525 0 0 0.0 0.0 0.00 0.02 0.00 1012.4
20170820012824 0 0 0.0 0.0 0.00 0.02 0.00 1012.4
20170820012123 0 0 0.0 0.0 0.00 0.02 0.00 1012.3
20170820011422 0 0 0.0 0.0 0.00 0.02 0.00 1012.2
20170820010722 0 0 0.0 0.0 0.00 0.02 0.00 1012.1
20170820010020 0 0 0.0 0.0 0.00 0.02 0.00 1012.2
20170820005319 0 0 0.0 0.0 0.00 0.02 0.00 1012.2
20170820004618 0 0 0.0 0.0 0.00 0.02 0.00 1012.3
20170820003918 0 0 0.0 0.0 0.00 0.02 0.00 1012.3
20170820003216 0 0 0.0 0.0 0.00 0.02 0.00 1012.4
20170820002515 0 0 0.0 0.0 0.00 0.02 0.00 1012.4
20170820001815 0 0 0.0 0.0 0.00 0.02 0.00 1012.5
20170820001113 0 0 0.0 0.0 0.00 0.02 0.00 1012.7
20170820000413 0 0 0.0 0.0 0.00 0.02 0.00 1012.8
20170819235713 0 0 0.0 0.0 0.00 0.02 0.00 1012.7
20170819235010 0 0 0.0 0.0 0.00 0.02 0.00 1012.8
20170819234309 0 0 0.0 0.0 0.00 0.02 0.00 1012.9
20170819233610 0 0 0.0 0.0 0.00 0.02 0.00 1013.0
20170819232910 0 0 0.0 0.0 0.00 0.02 0.00 1013.0
20170819232207 0 0 0.0 0.0 0.00 0.02 0.00 1013.0
20170819231506 0 0 0.0 0.0 0.00 0.02 0.00 1013.1
20170819230806 0 0 0.0 0.0 0.00 0.02 0.00 1013.1
20170819230106 0 0 0.0 1.0 0.00 0.02 0.00 1013.1
20170819225403 0 0 0.0 7.0 0.00 0.02 0.00 1013.1
20170819224702 0 349 2.0 7.0 0.00 0.02 0.00 1013.2
20170819223301 0 0 0.0 6.0 0.00 0.02 0.00 1013.5
20170819222559 0 341 2.0 9.0 0.00 0.02 0.00 1013.5
20170819221858 0 351 4.0 8.0 0.00 0.02 0.00 1013.6
20170819221157 0 0 0.0 0.0 0.00 0.02 0.00 1013.8
20170819220456 0 0 0.0 0.0 0.00 0.02 0.00 1013.8
20170819215054 0 0 0.0 0.0 0.00 0.02 0.00 1014.1
20170819214353 0 0 0.0 0.0 0.00 0.02 0.00 1014.2
20170819213652 0 0 0.0 0.0 0.00 0.02 0.00 1014.3
20170819212951 0 0 0.0 0.0 0.00 0.02 0.00 1014.5
20170819212250 0 0 0.0 0.0 0.00 0.02 0.00 1014.5
20170819210847 0 0 0.0 0.0 0.00 0.02 0.00 1014.7
20170819210146 0 0 0.0 0.0 0.00 0.02 0.00 1014.8
20170819205446 0 0 0.0 0.0 0.00 0.02 0.00 1014.8
20170819204745 0 0 0.0 0.0 0.00 0.02 0.00 1015.0
20170819204043 0 0 0.0 0.0 0.00 0.02 0.00 1015.1
20170819203342 0 0 0.0 0.0 0.00 0.02 0.00 1015.1
20170819202641 0 0 0.0 0.0 0.00 0.02 0.00 1015.1
20170819201941 0 0 0.0 0.0 0.00 0.02 0.00 1015.3
20170819201239 0 0 0.0 0.0 0.00 0.02 0.00 1015.3
20170819200538 0 0 0.0 0.0 0.00 0.02 0.00 1015.4
20170819195838 0 0 0.0 0.0 0.00 0.02 0.00 1015.5
20170819195136 0 0 0.0 6.0 0.00 0.02 0.00 1015.7
20170819194435 0 0 0.0 6.0 0.00 0.02 0.00 1015.7
20170819193735 0 274 2.0 6.0 0.00 0.02 0.00 1015.8
20170819193033 0 274 3.0 6.0 0.00 0.02 0.00 1015.8
20170819192333 0 0 0.0 6.0 0.00 0.02 0.00 1015.9
20170819191633 0 270 2.0 6.0 0.00 0.02 0.00 1015.9
20170819190930 0 0 0.0 6.0 0.00 0.02 0.00 1016.0
20170819190229 0 266 4.0 7.0 0.00 0.02 0.00 1016.3
20170819185528 0 0 0.0 0.0 0.00 0.02 0.00 1016.2
20170819184827 0 0 0.0 0.0 0.00 0.02 0.00 1016.3
20170819184127 0 0 0.0 0.0 0.00 0.02 0.00 1016.3
20170819183425 0 0 0.0 0.0 0.00 0.02 0.00 1016.4
20170819182725 0 0 0.0 0.0 0.00 0.02 0.00 1016.4
20170819182023 0 0 0.0 0.0 0.00 0.02 0.00 1016.5
20170819181323 0 0 0.0 0.0 0.00 0.02 0.00 1016.5
20170819180621 0 0 0.0 0.0 0.00 0.02 0.00 1016.5
20170819175921 0 0 0.0 0.0 0.00 0.02 0.00 1016.5
20170819175219 0 0 0.0 0.0 0.00 0.02 0.00 1016.6
20170819174518 0 0 0.0 0.0 0.00 0.02 0.00 1016.6
20170819173817 0 0 0.0 0.0 0.00 0.02 0.00 1016.7
20170819173117 0 0 0.0 0.0 0.00 0.02 0.00 1016.8
20170819172416 0 0 0.0 0.0 0.00 0.02 0.00 1016.9
20170819171716 0 0 0.0 0.0 0.00 0.02 0.00 1016.8
20170819171013 0 0 0.0 0.0 0.00 0.02 0.00 1016.8
20170819170313 0 0 0.0 0.0 0.00 0.02 0.00 1016.9
20170819165611 0 0 0.0 0.0 0.00 0.02 0.00 1016.9
20170819164911 0 0 0.0 0.0 0.00 0.02 0.00 1016.9
20170819164209 0 0 0.0 0.0 0.00 0.02 0.00 1016.8
20170819163508 0 0 0.0 0.0 0.00 0.02 0.00 1016.8
20170819162807 0 0 0.0 0.0 0.00 0.02 0.00 1016.7
20170819162106 0 0 0.0 0.0 0.00 0.02 0.00 1016.8
20170819161405 0 0 0.0 0.0 0.00 0.02 0.00 1016.8
20170819160704 0 0 0.0 0.0 0.00 0.02 0.00 1016.9
20170819155303 0 0 0.0 0.0 0.00 0.02 0.00 1016.9
20170819154600 0 0 0.0 0.0 0.00 0.02 0.00 1016.9
20170819153900 0 0 0.0 0.0 0.00 0.02 0.00 1016.9